Simultaneous Nadir Overpasses (SNOs) Predictions

Prediction of SNOs between GOES-15 and METOP-A Satellite Orbit:

Table of predicted SNOs for the next 14.0 days since TLE Epoch: 1/31/2014
Index Date Time (GOES-15) GOES-15 Lat,Lon METOP-A Lat,Lon Distance(km) Time Diff (sec)
1 02/01/2014 06:35:55 -0.04,-135.35 -0.29,-136.33 112.37 80
2 02/02/2014 06:12:35 -0.04,-135.36 0.87,-131.35 458.07 80
3 02/03/2014 18:34:06 0.05,-135.41 0.15,-135.90 55.87 80
4 02/06/2014 06:32:24 -0.05,-135.40 -0.06,-135.50 11.38 80
5 02/08/2014 18:27:54 0.05,-135.45 -0.04,-135.06 43.61 80
6 02/10/2014 06:49:34 -0.06,-135.42 -0.98,-139.66 482.84 80
7 02/11/2014 06:26:13 -0.05,-135.42 0.13,-134.66 86.58 80
8 02/12/2014 18:47:42 0.06,-135.45 0.92,-139.21 428.82 80
9 02/13/2014 18:24:22
